GEFSMA_prec_meanprecacc_342.txt.gz
Total_Precipitation_Accumulation
2.68 2.99 3.14 3.50 3.40 3.43 3.76 4.24 4.26 4.54 4.47 4.30 3.98 3.58 3.43 3.16 2.78 2.85 2.96 2.84 2.75 3.04 3.71 4.25 4.18 3.93 3.61 3.55 3.48 3.30 2.99 2.76 2.52 2.13 1.93 1.94 1.93 1.83 1.75 1.68 1.56 1.45 1.29
3.23 3.59 3.67 3.84 3.65 3.64 4.11 4.44 4.50 5.08 4.94 4.70 4.15 3.81 3.56 3.39 3.07 2.92 3.12 3.26 2.87 2.79 3.29 4.14 4.53 4.42 4.20 4.15 3.94 3.66 3.32 3.05 2.92 2.43 2.06 1.95 2.04 2.05 1.95 1.84 1.63 1.45 1.25
3.71 4.04 4.03 3.95 3.96 3.95 4.36 4.64 4.77 4.91 4.61 4.39 4.20 3.97 3.77 3.51 3.07 3.09 3.12 3.32 3.13 2.90 3.21 3.66 4.21 4.45 4.63 4.76 4.54 4.20 3.72 3.31 3.01 2.62 2.17 2.01 2.05 2.04 1.95 1.86 1.65 1.38 1.13
3.76 4.33 4.14 3.99 4.37 4.19 4.47 5.08 5.14 5.04 4.96 4.66 4.39 3.98 3.76 3.59 3.07 3.00 3.03 3.24 3.58 3.10 3.21 3.60 3.90 4.11 4.74 5.22 5.23 5.05 4.48 3.83 3.18 2.72 2.27 2.03 2.03 2.00 1.93 1.79 1.65 1.41 1.11
3.62 4.12 4.05 4.19 4.21 4.51 4.69 4.37 5.10 5.21 5.04 4.72 4.01 3.78 3.39 3.22 3.17 2.87 3.03 3.09 3.48 3.32 3.33 3.40 3.69 3.90 4.67 5.60 6.08 6.02 5.53 4.77 3.97 3.36 2.94 2.71 2.67 2.46 2.13 1.91 1.73 1.54 1.21
3.52 4.07 3.94 3.94 4.01 4.47 4.64 4.60 5.08 5.05 4.70 4.61 3.61 3.41 3.23 2.81 2.81 2.89 2.71 2.93 3.22 2.91 3.15 3.45 3.87 3.45 3.83 4.46 5.54 6.18 6.21 5.87 5.19 4.76 4.45 4.02 3.68 3.22 2.59 2.12 1.83 1.64 1.42
3.41 3.99 3.66 4.08 3.99 4.19 4.30 4.25 4.62 4.78 4.39 4.38 4.29 3.80 3.04 2.57 2.53 2.53 2.58 2.78 2.81 2.94 3.60 4.19 4.34 4.17 3.93 3.80 4.20 4.95 5.88 6.21 5.76 5.29 5.23 5.03 4.74 4.04 3.19 2.55 2.09 1.79 1.62
3.27 3.51 3.86 3.75 3.80 4.03 4.03 4.06 4.41 4.42 3.96 4.07 4.33 4.38 3.59 3.21 2.65 2.06 2.40 2.55 2.67 3.09 3.39 3.60 4.03 4.38 4.52 4.81 4.12 3.98 4.79 5.59 5.80 5.51 5.22 5.24 5.09 4.29 3.57 3.22 2.73 2.19 1.95
3.09 3.28 3.54 3.56 3.61 3.44 3.68 3.92 3.89 3.96 3.89 3.82 3.86 4.33 4.00 3.55 2.98 2.36 2.19 2.31 2.69 3.00 3.06 3.30 3.36 3.71 4.04 4.76 4.80 4.21 4.02 4.26 4.87 5.54 5.49 5.15 4.84 4.20 3.74 3.61 3.42 2.93 2.60
2.86 3.03 3.15 3.15 3.19 3.11 3.41 3.13 3.26 3.60 3.85 3.70 3.59 3.52 3.59 3.73 3.60 2.91 2.39 2.26 2.56 2.72 2.71 2.67 2.97 3.44 3.59 3.93 4.26 4.11 3.73 3.40 3.65 4.45 5.09 5.14 4.84 4.27 3.96 4.02 4.23 3.95 3.35
2.67 2.61 2.83 2.92 2.91 2.82 2.92 2.98 3.34 3.27 3.41 3.46 3.47 3.46 3.57 3.60 3.42 3.23 2.83 2.68 2.61 2.32 2.29 2.47 2.75 3.13 3.32 3.55 3.87 3.82 3.83 3.31 3.25 3.44 3.88 4.38 4.62 4.55 4.25 4.31 4.82 4.93 4.44
2.57 2.47 2.54 2.74 2.65 2.63 2.75 2.87 2.98 2.98 3.07 3.19 3.20 3.22 3.51 3.41 3.32 3.43 3.04 2.85 2.74 2.38 2.31 2.41 2.57 2.87 3.03 3.22 3.08 3.36 3.39 3.05 2.94 2.87 2.88 3.19 3.62 3.97 4.13 4.39 4.98 5.29 5.19
2.12 2.21 2.35 2.47 2.44 2.46 2.53 2.70 2.75 2.85 3.01 3.05 2.96 2.98 3.05 3.08 3.24 3.42 3.49 3.09 2.81 2.42 2.47 2.37 2.35 2.63 2.73 3.05 3.00 2.93 2.64 2.51 2.36 2.27 2.35 2.45 2.62 2.93 3.20 3.63 4.30 4.84 5.04
1.83 1.92 2.05 2.10 2.20 2.31 2.31 2.70 2.69 2.78 2.93 2.85 2.65 3.06 2.95 2.71 2.96 3.19 3.51 3.72 3.36 2.84 2.78 2.62 2.36 2.34 2.50 2.64 2.71 2.55 2.14 2.09 1.90 1.86 1.87 1.91 1.97 2.09 2.29 2.55 2.93 3.31 3.71
2.00 2.03 2.01 2.07 2.20 2.41 2.59 2.86 2.83 2.85 2.96 2.82 2.82 3.01 2.86 2.66 2.71 2.82 3.30 3.72 3.88 3.42 3.12 2.94 2.74 2.38 2.31 2.34 2.50 2.23 2.19 2.10 1.80 1.73 1.69 1.60 1.58 1.67 1.83 1.96 2.07 2.24 2.41
2.22 2.23 2.21 2.23 2.20 2.29 2.53 2.77 2.78 2.79 2.92 2.92 2.94 3.07 3.05 2.81 2.85 2.88 3.22 3.61 3.85 3.96 3.43 2.99 2.94 2.58 2.35 2.14 2.37 2.18 2.08 2.08 1.83 1.68 1.63 1.55 1.47 1.44 1.45 1.51 1.57 1.64 1.77
2.10 2.06 2.04 2.07 2.10 2.20 2.40 2.47 2.38 2.47 2.50 2.70 2.63 2.76 2.90 3.06 3.03 3.06 3.29 3.47 3.72 4.01 3.56 3.19 3.26 3.06 2.76 2.48 2.32 2.26 2.06 1.96 1.84 1.75 1.57 1.53 1.46 1.37 1.35 1.37 1.38 1.44 1.52
1.79 1.70 1.77 1.86 1.87 1.93 2.08 2.03 2.00 2.15 2.32 2.52 2.69 2.83 2.71 2.88 2.94 2.94 3.14 3.36 3.61 3.89 3.73 3.53 3.61 3.53 3.26 2.88 2.72 2.56 2.19 2.00 1.89 1.90 1.68 1.54 1.46 1.41 1.33 1.34 1.35 1.35 1.38
1.47 1.47 1.57 1.65 1.66 1.75 1.78 1.77 1.89 2.00 2.15 2.33 2.52 2.53 2.45 2.64 2.62 2.78 2.89 3.03 3.27 3.55 3.68 3.54 3.55 3.63 3.36 3.12 2.98 2.59 2.34 2.35 2.00 2.02 2.00 1.72 1.53 1.45 1.43 1.38 1.35 1.37 1.37
1.43 1.46 1.57 1.64 1.63 1.70 1.76 1.90 2.02 2.09 2.17 2.17 2.14 2.11 2.10 2.19 2.33 2.64 2.72 2.81 2.98 3.24 3.36 3.38 3.44 3.47 3.33 3.27 3.27 2.90 2.71 2.61 2.32 1.97 2.01 1.78 1.68 1.60 1.51 1.42 1.39 1.42 1.49
1.41 1.47 1.62 1.72 1.77 1.74 1.64 1.89 2.06 2.00 2.07 2.04 1.94 1.78 1.70 1.79 1.96 2.17 2.07 2.33 2.59 2.79 2.90 3.06 3.20 3.40 3.24 3.31 3.17 3.07 2.89 2.80 2.68 2.33 2.24 1.91 1.76 1.63 1.50 1.42 1.39 1.42 1.53
1.48 1.47 1.49 1.62 1.58 1.32 1.47 1.72 1.87 1.92 2.03 2.04 1.90 1.77 1.63 1.62 1.67 1.75 1.77 1.87 2.10 2.31 2.50 2.79 2.97 3.13 2.99 3.00 3.20 3.18 3.09 2.91 2.79 2.62 2.73 2.55 2.25 2.08 1.77 1.45 1.40 1.38 1.44
1.55 1.58 1.55 1.57 1.55 1.49 1.57 1.62 1.64 1.76 1.95 1.96 1.98 1.98 1.66 1.37 1.53 1.50 1.57 1.59 1.66 1.82 2.08 2.44 2.61 2.64 2.82 2.89 3.22 3.24 3.35 3.22 3.03 2.90 3.08 3.01 2.84 2.65 1.97 1.75 1.71 1.45 1.34
1.60 1.61 1.61 1.61 1.67 1.62 1.65 1.56 1.63 1.62 1.74 1.83 1.86 1.83 1.76 1.64 1.55 1.54 1.56 1.54 1.40 1.49 1.70 1.75 1.92 2.21 2.73 3.09 3.15 3.18 3.47 3.41 3.17 3.04 3.13 3.19 2.94 2.83 2.28 1.85 1.68 1.40 1.26
1.61 1.58 1.57 1.57 1.57 1.65 1.74 1.65 1.67 1.62 1.73 1.74 1.70 1.63 1.59 1.60 1.66 1.53 1.57 1.56 1.46 1.41 1.47 1.58 1.68 1.91 2.24 2.62 2.87 2.93 3.03 3.18 3.16 3.09 3.14 3.26 3.14 3.05 2.98 2.59 1.98 1.66 1.35
1.79 1.75 1.67 1.66 1.66 1.71 1.73 1.53 1.51 1.43 1.54 1.59 1.64 1.52 1.42 1.36 1.44 1.42 1.52 1.63 1.51 1.43 1.49 1.49 1.47 1.58 1.76 1.98 2.14 2.13 2.31 2.52 2.61 2.76 2.73 3.03 3.25 3.37 3.55 3.37 2.76 2.17 1.80

GEFSMA_prec_meanprecacc_348.txt.gz
Total_Precipitation_Accumulation
2.72 3.03 3.18 3.54 3.45 3.48 3.81 4.29 4.31 4.60 4.55 4.35 4.02 3.61 3.46 3.20 2.85 2.91 3.03 2.86 2.76 3.05 3.72 4.26 4.20 3.95 3.63 3.58 3.53 3.34 3.03 2.79 2.55 2.16 1.97 2.01 2.03 1.92 1.86 1.81 1.68 1.53 1.34
3.27 3.62 3.72 3.89 3.69 3.69 4.16 4.49 4.55 5.15 5.00 4.75 4.19 3.84 3.60 3.44 3.13 2.97 3.18 3.30 2.89 2.79 3.30 4.14 4.54 4.43 4.23 4.19 3.99 3.71 3.39 3.11 2.97 2.47 2.10 2.00 2.11 2.11 2.01 1.92 1.71 1.52 1.29
3.74 4.07 4.07 3.99 4.00 3.99 4.40 4.69 4.81 4.96 4.68 4.45 4.27 4.02 3.82 3.58 3.13 3.14 3.19 3.37 3.18 2.95 3.22 3.68 4.23 4.47 4.66 4.79 4.59 4.27 3.79 3.36 3.05 2.66 2.21 2.07 2.11 2.08 1.99 1.91 1.70 1.44 1.18
3.79 4.37 4.17 4.02 4.41 4.24 4.51 5.14 5.20 5.11 5.05 4.75 4.54 4.06 3.82 3.64 3.11 3.05 3.08 3.29 3.65 3.15 3.24 3.63 3.92 4.13 4.77 5.27 5.29 5.11 4.55 3.89 3.23 2.76 2.32 2.10 2.09 2.04 1.96 1.83 1.70 1.46 1.15
3.66 4.17 4.10 4.23 4.25 4.57 4.75 4.42 5.18 5.32 5.15 4.81 4.09 3.86 3.46 3.28 3.23 2.92 3.06 3.12 3.51 3.36 3.37 3.44 3.71 3.92 4.69 5.63 6.12 6.06 5.58 4.83 4.03 3.42 3.00 2.78 2.73 2.51 2.18 1.95 1.77 1.59 1.26
3.56 4.12 3.99 3.99 4.06 4.55 4.72 4.67 5.16 5.14 4.79 4.67 3.65 3.48 3.32 2.93 2.90 2.95 2.75 2.96 3.25 2.93 3.19 3.50 3.93 3.49 3.84 4.48 5.56 6.20 6.24 5.91 5.23 4.82 4.51 4.09 3.75 3.27 2.64 2.15 1.87 1.70 1.49
3.45 4.04 3.71 4.14 4.05 4.26 4.37 4.33 4.72 4.86 4.46 4.43 4.35 3.87 3.10 2.63 2.59 2.58 2.62 2.81 2.83 2.95 3.62 4.21 4.39 4.22 3.96 3.81 4.22 4.98 5.91 6.24 5.79 5.33 5.30 5.09 4.79 4.09 3.25 2.59 2.12 1.82 1.66
3.30 3.55 3.91 3.80 3.86 4.10 4.12 4.14 4.50 4.51 4.04 4.13 4.41 4.47 3.68 3.30 2.73 2.11 2.43 2.58 2.69 3.11 3.41 3.63 4.05 4.42 4.57 4.85 4.14 4.00 4.81 5.60 5.82 5.54 5.27 5.33 5.15 4.33 3.60 3.27 2.77 2.23 1.99
3.11 3.30 3.58 3.60 3.67 3.51 3.78 4.01 3.98 4.04 3.97 3.90 3.93 4.42 4.10 3.65 3.05 2.41 2.22 2.34 2.72 3.03 3.08 3.33 3.39 3.74 4.07 4.80 4.84 4.24 4.04 4.29 4.90 5.57 5.52 5.19 4.92 4.28 3.79 3.65 3.46 2.97 2.65
2.89 3.06 3.20 3.19 3.24 3.18 3.48 3.20 3.32 3.66 3.94 3.80 3.68 3.59 3.67 3.81 3.69 3.00 2.45 2.30 2.60 2.76 2.74 2.69 2.99 3.47 3.62 3.97 4.30 4.14 3.76 3.43 3.67 4.46 5.10 5.16 4.87 4.32 4.03 4.07 4.27 4.00 3.40
2.70 2.65 2.87 2.96 2.95 2.87 2.97 3.03 3.38 3.32 3.48 3.54 3.55 3.53 3.64 3.68 3.50 3.32 2.92 2.75 2.67 2.37 2.33 2.49 2.78 3.16 3.35 3.59 3.92 3.87 3.86 3.33 3.27 3.45 3.89 4.40 4.64 4.57 4.29 4.37 4.88 4.97 4.47
2.61 2.51 2.59 2.79 2.70 2.68 2.81 2.93 3.03 3.03 3.13 3.25 3.27 3.30 3.60 3.49 3.41 3.51 3.12 2.94 2.81 2.44 2.37 2.46 2.60 2.89 3.06 3.25 3.13 3.40 3.41 3.06 2.95 2.87 2.89 3.19 3.63 3.98 4.14 4.41 5.03 5.38 5.25
2.16 2.26 2.40 2.52 2.49 2.52 2.58 2.76 2.81 2.91 3.07 3.11 3.03 3.05 3.13 3.16 3.32 3.50 3.57 3.16 2.88 2.47 2.51 2.42 2.39 2.66 2.77 3.08 3.03 2.96 2.65 2.52 2.36 2.27 2.35 2.45 2.62 2.93 3.20 3.64 4.32 4.90 5.14
1.88 1.97 2.10 2.15 2.25 2.37 2.37 2.78 2.75 2.84 2.99 2.92 2.72 3.17 3.05 2.79 3.03 3.27 3.58 3.78 3.41 2.88 2.83 2.67 2.41 2.37 2.53 2.68 2.75 2.58 2.15 2.11 1.91 1.86 1.87 1.91 1.97 2.09 2.30 2.55 2.94 3.33 3.76
2.05 2.09 2.09 2.13 2.25 2.47 2.65 2.93 2.89 2.92 3.05 2.92 2.93 3.13 2.98 2.75 2.78 2.87 3.35 3.79 3.95 3.48 3.17 3.02 2.80 2.42 2.35 2.37 2.53 2.26 2.21 2.11 1.81 1.73 1.69 1.60 1.58 1.67 1.84 1.97 2.08 2.24 2.42
2.27 2.28 2.30 2.32 2.27 2.36 2.59 2.84 2.83 2.85 3.00 3.00 3.04 3.21 3.16 2.87 2.90 2.93 3.28 3.68 3.92 4.03 3.49 3.04 2.99 2.64 2.40 2.17 2.41 2.22 2.12 2.12 1.85 1.68 1.63 1.55 1.48 1.44 1.45 1.51 1.58 1.65 1.78
2.15 2.12 2.09 2.13 2.15 2.26 2.47 2.56 2.46 2.54 2.58 2.77 2.70 2.85 2.97 3.13 3.10 3.12 3.35 3.53 3.76 4.07 3.61 3.24 3.30 3.11 2.82 2.53 2.39 2.32 2.10 1.99 1.86 1.76 1.57 1.53 1.46 1.37 1.35 1.37 1.38 1.44 1.53
1.83 1.75 1.81 1.90 1.91 1.98 2.14 2.10 2.07 2.23 2.39 2.60 2.78 2.92 2.78 2.95 3.02 3.01 3.20 3.40 3.65 3.94 3.77 3.56 3.65 3.58 3.32 2.95 2.78 2.64 2.24 2.04 1.92 1.92 1.69 1.54 1.46 1.41 1.33 1.34 1.36 1.35 1.39
1.51 1.50 1.60 1.69 1.69 1.79 1.82 1.83 1.95 2.05 2.19 2.39 2.60 2.61 2.52 2.71 2.68 2.83 2.93 3.07 3.31 3.58 3.72 3.58 3.60 3.67 3.40 3.16 3.03 2.64 2.38 2.39 2.04 2.06 2.02 1.73 1.53 1.45 1.43 1.38 1.35 1.37 1.38
1.48 1.52 1.62 1.69 1.68 1.73 1.78 1.94 2.07 2.14 2.21 2.21 2.19 2.17 2.15 2.25 2.38 2.68 2.76 2.84 3.02 3.27 3.41 3.44 3.49 3.51 3.36 3.31 3.31 2.93 2.75 2.63 2.35 2.01 2.03 1.79 1.69 1.61 1.51 1.42 1.39 1.42 1.49
1.46 1.52 1.67 1.76 1.81 1.77 1.67 1.93 2.10 2.05 2.12 2.10 2.01 1.85 1.76 1.87 2.03 2.23 2.12 2.37 2.64 2.83 2.95 3.11 3.24 3.43 3.27 3.36 3.21 3.11 2.94 2.85 2.73 2.38 2.29 1.93 1.78 1.65 1.52 1.43 1.40 1.42 1.53
1.52 1.51 1.53 1.65 1.60 1.34 1.51 1.76 1.90 1.95 2.08 2.11 1.99 1.85 1.71 1.71 1.77 1.82 1.83 1.91 2.14 2.34 2.52 2.81 3.00 3.17 3.04 3.05 3.27 3.24 3.14 2.97 2.84 2.66 2.78 2.59 2.28 2.11 1.79 1.47 1.42 1.39 1.44
1.59 1.62 1.57 1.60 1.58 1.53 1.63 1.66 1.67 1.78 1.99 2.03 2.07 2.07 1.73 1.43 1.60 1.57 1.64 1.64 1.69 1.84 2.10 2.46 2.64 2.67 2.87 2.95 3.29 3.30 3.42 3.29 3.09 2.95 3.14 3.07 2.88 2.68 1.99 1.76 1.73 1.47 1.35
1.64 1.65 1.65 1.65 1.71 1.67 1.71 1.59 1.64 1.63 1.78 1.88 1.91 1.89 1.83 1.71 1.62 1.62 1.63 1.59 1.44 1.52 1.73 1.78 1.94 2.24 2.77 3.14 3.22 3.25 3.54 3.50 3.25 3.10 3.19 3.24 2.98 2.87 2.31 1.88 1.71 1.44 1.28
1.65 1.62 1.61 1.62 1.63 1.71 1.78 1.68 1.68 1.64 1.77 1.77 1.74 1.67 1.63 1.65 1.71 1.59 1.65 1.63 1.51 1.46 1.51 1.63 1.71 1.94 2.26 2.65 2.91 2.99 3.09 3.24 3.21 3.14 3.19 3.30 3.18 3.10 3.02 2.62 2.01 1.69 1.37
1.84 1.79 1.71 1.70 1.69 1.76 1.75 1.55 1.52 1.45 1.56 1.62 1.68 1.56 1.45 1.39 1.47 1.46 1.57 1.71 1.59 1.50 1.55 1.55 1.51 1.61 1.78 2.00 2.17 2.17 2.36 2.57 2.66 2.80 2.77 3.06 3.28 3.42 3.59 3.40 2.79 2.21 1.84

GEFSMA_prec_meanprecacc_354.txt.gz
Total_Precipitation_Accumulation
2.73 3.05 3.20 3.57 3.48 3.52 3.89 4.35 4.35 4.63 4.59 4.39 4.06 3.66 3.53 3.26 2.92 3.01 3.07 2.88 2.78 3.06 3.75 4.30 4.25 4.00 3.68 3.63 3.57 3.40 3.09 2.84 2.59 2.20 2.01 2.04 2.06 1.96 1.89 1.85 1.75 1.59 1.39
3.28 3.66 3.77 3.90 3.71 3.71 4.20 4.52 4.59 5.19 5.04 4.79 4.23 3.90 3.67 3.51 3.20 3.06 3.22 3.34 2.93 2.82 3.33 4.20 4.60 4.48 4.28 4.25 4.06 3.78 3.46 3.18 3.05 2.53 2.14 2.05 2.16 2.17 2.07 1.96 1.77 1.59 1.34
3.77 4.09 4.09 4.00 4.02 4.02 4.42 4.70 4.83 4.99 4.72 4.48 4.32 4.08 3.89 3.65 3.21 3.21 3.24 3.43 3.23 3.01 3.26 3.72 4.28 4.52 4.71 4.85 4.66 4.34 3.85 3.42 3.12 2.73 2.27 2.11 2.15 2.13 2.05 1.96 1.74 1.49 1.24
3.81 4.38 4.18 4.03 4.42 4.25 4.53 5.15 5.21 5.14 5.09 4.81 4.61 4.16 3.89 3.71 3.17 3.10 3.12 3.32 3.68 3.19 3.27 3.66 3.95 4.16 4.80 5.29 5.33 5.16 4.60 3.93 3.29 2.83 2.39 2.16 2.14 2.09 2.01 1.87 1.74 1.50 1.21
3.69 4.19 4.11 4.24 4.26 4.58 4.77 4.43 5.19 5.33 5.17 4.84 4.13 3.91 3.50 3.35 3.30 2.98 3.11 3.15 3.54 3.38 3.40 3.46 3.73 3.94 4.71 5.66 6.15 6.10 5.63 4.86 4.06 3.48 3.06 2.84 2.80 2.58 2.25 2.00 1.82 1.63 1.31
3.58 4.14 4.00 4.01 4.07 4.56 4.74 4.68 5.18 5.18 4.83 4.70 3.67 3.52 3.38 3.00 2.96 3.00 2.80 3.01 3.28 2.96 3.22 3.52 3.94 3.50 3.85 4.49 5.59 6.24 6.29 5.95 5.26 4.87 4.58 4.15 3.81 3.35 2.74 2.25 1.93 1.74 1.52
3.47 4.05 3.72 4.16 4.07 4.28 4.40 4.36 4.76 4.90 4.50 4.46 4.39 3.91 3.13 2.67 2.62 2.62 2.67 2.86 2.86 2.98 3.64 4.23 4.41 4.23 3.98 3.83 4.24 5.02 5.96 6.27 5.84 5.40 5.37 5.15 4.84 4.16 3.33 2.68 2.20 1.87 1.69
3.34 3.59 3.94 3.84 3.90 4.13 4.14 4.18 4.56 4.55 4.08 4.16 4.44 4.50 3.72 3.33 2.76 2.13 2.46 2.60 2.72 3.15 3.46 3.68 4.10 4.47 4.62 4.88 4.18 4.05 4.87 5.66 5.89 5.61 5.32 5.38 5.21 4.38 3.66 3.32 2.83 2.28 2.03
3.15 3.34 3.62 3.64 3.72 3.55 3.81 4.05 4.04 4.09 4.02 3.94 3.98 4.47 4.15 3.69 3.07 2.44 2.25 2.36 2.75 3.08 3.15 3.41 3.45 3.79 4.12 4.83 4.87 4.28 4.10 4.34 4.96 5.62 5.57 5.23 4.99 4.34 3.82 3.68 3.51 3.03 2.70
2.93 3.09 3.24 3.25 3.30 3.22 3.53 3.23 3.37 3.73 3.98 3.84 3.72 3.63 3.71 3.86 3.73 3.03 2.47 2.34 2.64 2.83 2.83 2.80 3.08 3.53 3.67 4.01 4.35 4.19 3.80 3.46 3.70 4.49 5.14 5.20 4.89 4.34 4.05 4.09 4.30 4.05 3.45
2.77 2.71 2.94 3.04 3.01 2.93 3.04 3.08 3.44 3.39 3.56 3.61 3.60 3.58 3.68 3.72 3.53 3.35 2.95 2.78 2.70 2.42 2.42 2.59 2.90 3.23 3.41 3.65 3.98 3.92 3.89 3.36 3.30 3.47 3.91 4.42 4.66 4.58 4.30 4.38 4.90 5.00 4.52
2.70 2.61 2.67 2.86 2.77 2.76 2.89 3.01 3.11 3.11 3.23 3.34 3.32 3.37 3.66 3.55 3.44 3.53 3.14 2.96 2.84 2.48 2.43 2.53 2.68 2.98 3.15 3.33 3.19 3.46 3.45 3.09 2.97 2.89 2.90 3.21 3.65 4.01 4.16 4.43 5.05 5.39 5.27
2.24 2.39 2.53 2.62 2.56 2.59 2.66 2.85 2.91 2.99 3.16 3.19 3.08 3.12 3.20 3.21 3.37 3.54 3.61 3.20 2.93 2.51 2.56 2.47 2.44 2.72 2.86 3.19 3.13 3.03 2.70 2.55 2.39 2.29 2.36 2.47 2.63 2.94 3.21 3.65 4.34 4.92 5.16
1.93 2.03 2.17 2.21 2.31 2.44 2.46 2.90 2.88 2.94 3.07 2.99 2.79 3.23 3.10 2.83 3.11 3.34 3.65 3.84 3.46 2.93 2.88 2.71 2.46 2.43 2.61 2.76 2.84 2.64 2.19 2.14 1.94 1.89 1.89 1.93 1.97 2.09 2.30 2.56 2.95 3.34 3.77
2.08 2.14 2.15 2.19 2.32 2.54 2.74 3.03 2.98 3.00 3.12 3.00 2.99 3.20 3.02 2.79 2.84 2.93 3.43 3.87 4.02 3.53 3.20 3.05 2.86 2.49 2.40 2.41 2.60 2.34 2.28 2.16 1.85 1.76 1.71 1.61 1.58 1.67 1.84 1.97 2.08 2.25 2.43
2.30 2.31 2.33 2.36 2.32 2.43 2.66 2.91 2.90 2.92 3.07 3.07 3.11 3.28 3.22 2.93 2.97 2.99 3.35 3.76 4.00 4.09 3.53 3.08 3.02 2.65 2.42 2.20 2.45 2.27 2.18 2.19 1.89 1.71 1.64 1.56 1.48 1.44 1.45 1.51 1.58 1.65 1.79
2.17 2.14 2.13 2.17 2.18 2.30 2.51 2.60 2.51 2.60 2.64 2.84 2.77 2.91 3.02 3.20 3.17 3.19 3.41 3.60 3.84 4.13 3.64 3.25 3.32 3.12 2.86 2.56 2.42 2.36 2.14 2.04 1.92 1.80 1.59 1.54 1.47 1.38 1.35 1.37 1.38 1.45 1.53
1.85 1.77 1.85 1.95 1.96 2.04 2.19 2.15 2.12 2.28 2.44 2.64 2.83 2.97 2.83 3.00 3.08 3.08 3.26 3.47 3.70 3.99 3.80 3.59 3.66 3.60 3.34 2.97 2.81 2.67 2.27 2.06 1.95 1.96 1.72 1.56 1.47 1.42 1.34 1.35 1.36 1.36 1.39
1.55 1.56 1.66 1.75 1.77 1.88 1.91 1.89 2.01 2.10 2.24 2.45 2.65 2.66 2.57 2.76 2.74 2.91 3.01 3.15 3.38 3.63 3.76 3.61 3.62 3.70 3.43 3.19 3.06 2.67 2.40 2.40 2.05 2.08 2.05 1.75 1.55 1.46 1.44 1.39 1.36 1.38 1.38
1.55 1.59 1.68 1.76 1.75 1.80 1.83 1.98 2.12 2.18 2.25 2.26 2.24 2.21 2.20 2.30 2.45 2.76 2.85 2.93 3.09 3.33 3.47 3.49 3.54 3.54 3.39 3.34 3.36 2.97 2.77 2.65 2.36 2.03 2.06 1.82 1.72 1.63 1.53 1.44 1.40 1.43 1.50
1.55 1.61 1.74 1.82 1.87 1.81 1.70 1.96 2.14 2.09 2.15 2.13 2.04 1.89 1.81 1.93 2.09 2.29 2.18 2.44 2.71 2.89 3.00 3.17 3.28 3.46 3.30 3.39 3.25 3.14 2.97 2.87 2.74 2.40 2.32 1.96 1.81 1.69 1.55 1.46 1.42 1.44 1.54
1.65 1.64 1.60 1.70 1.65 1.38 1.54 1.80 1.94 1.98 2.11 2.14 2.02 1.90 1.76 1.75 1.80 1.85 1.85 1.95 2.20 2.40 2.57 2.86 3.04 3.21 3.07 3.08 3.30 3.28 3.17 2.99 2.85 2.68 2.81 2.63 2.34 2.15 1.83 1.50 1.44 1.42 1.46
1.72 1.71 1.63 1.66 1.63 1.57 1.66 1.70 1.70 1.81 2.01 2.05 2.09 2.08 1.75 1.44 1.61 1.58 1.65 1.67 1.73 1.89 2.15 2.51 2.68 2.71 2.92 2.98 3.33 3.35 3.46 3.31 3.11 2.98 3.18 3.11 2.92 2.71 2.02 1.80 1.78 1.50 1.38
1.73 1.72 1.70 1.70 1.77 1.72 1.75 1.62 1.66 1.65 1.79 1.88 1.93 1.91 1.84 1.72 1.63 1.63 1.64 1.61 1.46 1.55 1.76 1.81 1.96 2.26 2.79 3.17 3.25 3.28 3.58 3.54 3.28 3.14 3.23 3.27 3.01 2.90 2.35 1.92 1.75 1.47 1.32
1.72 1.68 1.67 1.67 1.68 1.76 1.82 1.71 1.70 1.65 1.78 1.78 1.75 1.68 1.64 1.66 1.72 1.60 1.65 1.64 1.53 1.47 1.54 1.67 1.75 1.97 2.30 2.69 2.94 3.02 3.13 3.28 3.24 3.17 3.23 3.34 3.20 3.13 3.06 2.66 2.06 1.73 1.42
1.94 1.89 1.79 1.77 1.76 1.80 1.78 1.58 1.54 1.47 1.58 1.64 1.69 1.56 1.46 1.40 1.47 1.47 1.57 1.72 1.60 1.52 1.59 1.59 1.57 1.67 1.84 2.05 2.21 2.20 2.40 2.63 2.71 2.84 2.80 3.10 3.32 3.47 3.64 3.44 2.83 2.25 1.88

GEFSMA_prec_meanprecacc_360.txt.gz
Total_Precipitation_Accumulation
2.74 3.05 3.21 3.57 3.49 3.53 3.90 4.37 4.37 4.65 4.62 4.41 4.08 3.69 3.57 3.28 2.94 3.03 3.09 2.89 2.79 3.09 3.81 4.38 4.31 4.06 3.74 3.69 3.63 3.46 3.17 2.94 2.69 2.29 2.08 2.10 2.12 2.01 1.94 1.90 1.80 1.64 1.44
3.30 3.68 3.77 3.91 3.72 3.73 4.21 4.55 4.63 5.22 5.07 4.82 4.25 3.92 3.69 3.53 3.22 3.08 3.24 3.35 2.94 2.84 3.37 4.26 4.67 4.54 4.33 4.31 4.13 3.85 3.53 3.27 3.15 2.62 2.24 2.13 2.22 2.23 2.12 2.00 1.82 1.65 1.40
3.79 4.12 4.10 4.01 4.03 4.03 4.44 4.74 4.86 5.02 4.74 4.51 4.35 4.10 3.90 3.66 3.24 3.23 3.25 3.44 3.24 3.04 3.30 3.76 4.33 4.57 4.75 4.89 4.71 4.41 3.91 3.48 3.21 2.84 2.40 2.22 2.22 2.21 2.12 2.02 1.80 1.55 1.29
3.84 4.41 4.20 4.04 4.44 4.28 4.55 5.18 5.23 5.16 5.11 4.84 4.64 4.18 3.90 3.72 3.19 3.11 3.13 3.34 3.69 3.20 3.30 3.70 4.00 4.20 4.84 5.34 5.38 5.22 4.67 4.00 3.36 2.92 2.49 2.27 2.24 2.19 2.13 2.00 1.83 1.57 1.26
3.76 4.23 4.14 4.26 4.27 4.60 4.79 4.46 5.22 5.35 5.20 4.88 4.15 3.92 3.51 3.36 3.31 2.99 3.12 3.16 3.55 3.39 3.42 3.49 3.78 4.00 4.76 5.72 6.21 6.16 5.68 4.93 4.13 3.54 3.14 2.94 2.91 2.70 2.42 2.20 1.92 1.70 1.37
3.66 4.20 4.05 4.03 4.09 4.59 4.77 4.71 5.21 5.21 4.86 4.72 3.68 3.52 3.39 3.00 2.96 3.01 2.81 3.02 3.29 2.97 3.24 3.55 3.98 3.54 3.90 4.55 5.65 6.30 6.36 6.01 5.31 4.91 4.64 4.24 3.90 3.45 2.86 2.39 2.04 1.83 1.60
3.55 4.13 3.79 4.22 4.11 4.31 4.43 4.40 4.79 4.92 4.52 4.48 4.39 3.91 3.13 2.68 2.63 2.63 2.69 2.88 2.88 3.00 3.67 4.28 4.44 4.25 4.01 3.87 4.28 5.06 6.00 6.32 5.87 5.45 5.42 5.19 4.88 4.20 3.37 2.74 2.30 1.96 1.76
3.40 3.67 4.02 3.93 3.98 4.19 4.19 4.22 4.59 4.58 4.10 4.19 4.45 4.51 3.72 3.34 2.77 2.14 2.47 2.62 2.75 3.19 3.51 3.74 4.14 4.50 4.64 4.90 4.20 4.09 4.91 5.69 5.92 5.65 5.37 5.43 5.26 4.43 3.70 3.38 2.90 2.41 2.16
3.19 3.39 3.71 3.75 3.83 3.67 3.89 4.12 4.10 4.14 4.06 3.98 4.01 4.50 4.17 3.70 3.08 2.45 2.25 2.38 2.78 3.13 3.21 3.46 3.50 3.84 4.15 4.86 4.90 4.32 4.13 4.37 4.99 5.67 5.63 5.30 5.04 4.40 3.89 3.75 3.57 3.11 2.82
2.96 3.13 3.30 3.32 3.39 3.34 3.63 3.34 3.49 3.84 4.07 3.91 3.79 3.68 3.75 3.90 3.76 3.04 2.48 2.35 2.66 2.86 2.87 2.85 3.15 3.60 3.72 4.05 4.39 4.23 3.84 3.50 3.73 4.52 5.16 5.23 4.92 4.37 4.10 4.15 4.35 4.10 3.53
2.82 2.76 2.97 3.08 3.06 3.00 3.12 3.19 3.56 3.52 3.67 3.69 3.70 3.66 3.75 3.77 3.56 3.37 2.96 2.79 2.72 2.45 2.44 2.63 2.96 3.30 3.47 3.69 4.02 3.96 3.93 3.40 3.32 3.49 3.93 4.45 4.70 4.62 4.34 4.42 4.93 5.04 4.57
2.75 2.67 2.73 2.92 2.83 2.82 2.96 3.11 3.24 3.24 3.37 3.46 3.45 3.48 3.77 3.65 3.51 3.59 3.18 2.99 2.87 2.50 2.46 2.56 2.73 3.04 3.21 3.37 3.23 3.50 3.48 3.11 2.99 2.91 2.93 3.23 3.68 4.05 4.20 4.46 5.08 5.43 5.31
2.29 2.45 2.60 2.72 2.68 2.69 2.75 2.95 3.06 3.15 3.29 3.32 3.22 3.26 3.35 3.37 3.50 3.64 3.67 3.24 2.97 2.56 2.60 2.51 2.49 2.78 2.92 3.24 3.18 3.08 2.73 2.57 2.41 2.31 2.39 2.49 2.66 2.97 3.25 3.68 4.37 4.96 5.20
1.99 2.10 2.23 2.28 2.39 2.53 2.54 3.00 3.02 3.08 3.19 3.11 2.90 3.33 3.22 2.95 3.21 3.42 3.73 3.92 3.52 2.98 2.93 2.74 2.48 2.47 2.65 2.80 2.88 2.70 2.24 2.18 1.96 1.90 1.91 1.95 2.00 2.12 2.33 2.59 2.98 3.37 3.81
2.13 2.18 2.19 2.23 2.36 2.59 2.81 3.10 3.08 3.10 3.21 3.07 3.09 3.28 3.11 2.87 2.91 3.00 3.51 3.94 4.07 3.57 3.23 3.08 2.89 2.53 2.45 2.44 2.63 2.38 2.33 2.21 1.89 1.79 1.73 1.63 1.60 1.69 1.86 2.00 2.11 2.28 2.46
2.33 2.33 2.34 2.38 2.35 2.47 2.73 2.97 2.97 3.00 3.13 3.12 3.16 3.34 3.28 3.00 3.03 3.06 3.42 3.84 4.07 4.14 3.55 3.10 3.04 2.67 2.44 2.21 2.47 2.31 2.22 2.24 1.93 1.75 1.68 1.59 1.50 1.46 1.46 1.53 1.59 1.66 1.80
2.20 2.16 2.13 2.18 2.21 2.35 2.59 2.68 2.59 2.67 2.69 2.87 2.80 2.95 3.07 3.26 3.23 3.25 3.47 3.66 3.89 4.18 3.68 3.27 3.33 3.14 2.87 2.57 2.43 2.38 2.16 2.07 1.94 1.83 1.62 1.56 1.49 1.39 1.37 1.38 1.40 1.46 1.54
1.90 1.81 1.88 1.98 2.02 2.14 2.31 2.27 2.22 2.35 2.48 2.68 2.85 2.99 2.85 3.03 3.12 3.12 3.30 3.51 3.75 4.04 3.85 3.61 3.69 3.63 3.37 2.99 2.83 2.69 2.29 2.08 1.97 1.98 1.73 1.57 1.49 1.44 1.36 1.37 1.38 1.37 1.41
1.62 1.64 1.75 1.86 1.93 2.05 2.02 1.97 2.07 2.14 2.27 2.48 2.68 2.69 2.61 2.81 2.79 2.95 3.05 3.19 3.42 3.68 3.80 3.64 3.64 3.72 3.45 3.21 3.10 2.70 2.43 2.43 2.07 2.11 2.06 1.77 1.56 1.48 1.45 1.41 1.37 1.40 1.41
1.63 1.68 1.82 1.95 1.92 1.90 1.89 2.02 2.14 2.20 2.27 2.27 2.25 2.24 2.23 2.35 2.50 2.82 2.89 2.97 3.12 3.36 3.49 3.53 3.56 3.56 3.41 3.36 3.38 2.99 2.79 2.67 2.39 2.06 2.09 1.84 1.73 1.65 1.55 1.46 1.43 1.45 1.52
1.61 1.71 1.91 1.98 1.98 1.89 1.74 1.98 2.16 2.10 2.17 2.15 2.06 1.91 1.84 1.95 2.13 2.34 2.22 2.47 2.73 2.91 3.02 3.19 3.31 3.47 3.31 3.41 3.27 3.17 2.99 2.89 2.78 2.44 2.35 1.99 1.83 1.70 1.58 1.50 1.45 1.48 1.57
1.71 1.76 1.75 1.80 1.72 1.44 1.59 1.84 1.97 2.01 2.13 2.17 2.04 1.92 1.78 1.77 1.82 1.88 1.89 1.98 2.22 2.42 2.59 2.87 3.05 3.22 3.08 3.10 3.32 3.31 3.20 3.02 2.87 2.71 2.85 2.66 2.37 2.18 1.85 1.52 1.48 1.46 1.49
1.78 1.77 1.68 1.71 1.68 1.62 1.72 1.76 1.77 1.87 2.06 2.08 2.12 2.11 1.78 1.46 1.64 1.61 1.68 1.70 1.75 1.90 2.16 2.52 2.68 2.72 2.93 3.00 3.35 3.38 3.48 3.34 3.13 3.01 3.23 3.16 2.96 2.74 2.05 1.83 1.81 1.54 1.41
1.77 1.77 1.76 1.77 1.85 1.81 1.84 1.70 1.74 1.72 1.86 1.94 1.97 1.94 1.87 1.75 1.66 1.65 1.66 1.62 1.47 1.55 1.76 1.82 1.97 2.26 2.80 3.18 3.27 3.31 3.62 3.58 3.32 3.18 3.27 3.31 3.04 2.93 2.37 1.94 1.78 1.50 1.34
1.74 1.70 1.70 1.72 1.76 1.86 1.96 1.86 1.82 1.74 1.85 1.86 1.81 1.72 1.67 1.68 1.73 1.61 1.66 1.65 1.53 1.48 1.54 1.67 1.76 1.98 2.30 2.69 2.96 3.04 3.16 3.32 3.29 3.22 3.28 3.38 3.25 3.17 3.09 2.69 2.08 1.76 1.44
1.95 1.91 1.83 1.83 1.82 1.88 1.88 1.68 1.64 1.55 1.64 1.69 1.73 1.59 1.48 1.41 1.47 1.47 1.57 1.72 1.60 1.52 1.59 1.59 1.57 1.68 1.85 2.06 2.22 2.22 2.42 2.65 2.74 2.87 2.83 3.15 3.38 3.53 3.68 3.47 2.85 2.27 1.89

GEFSMA_prec_meanprecacc_366.txt.gz
Total_Precipitation_Accumulation
2.81 3.12 3.26 3.63 3.56 3.60 3.97 4.44 4.45 4.72 4.67 4.46 4.12 3.74 3.62 3.33 2.99 3.06 3.12 2.91 2.80 3.10 3.84 4.42 4.38 4.16 3.86 3.77 3.70 3.52 3.22 3.00 2.77 2.39 2.20 2.22 2.19 2.06 2.00 1.94 1.83 1.68 1.48
3.35 3.74 3.82 3.97 3.79 3.79 4.27 4.61 4.71 5.30 5.14 4.87 4.30 3.99 3.76 3.59 3.28 3.11 3.27 3.39 2.96 2.85 3.39 4.29 4.72 4.62 4.44 4.41 4.18 3.89 3.56 3.31 3.20 2.68 2.34 2.24 2.29 2.27 2.16 2.05 1.86 1.68 1.43
3.83 4.17 4.15 4.05 4.08 4.09 4.51 4.80 4.94 5.10 4.80 4.56 4.40 4.16 3.97 3.72 3.29 3.28 3.28 3.47 3.28 3.06 3.31 3.79 4.38 4.63 4.80 4.95 4.77 4.45 3.96 3.52 3.25 2.90 2.48 2.34 2.31 2.26 2.16 2.08 1.87 1.61 1.33
3.88 4.46 4.24 4.08 4.50 4.36 4.65 5.28 5.32 5.23 5.19 4.90 4.70 4.24 3.95 3.77 3.23 3.15 3.16 3.37 3.74 3.23 3.31 3.72 4.03 4.24 4.87 5.37 5.42 5.27 4.71 4.04 3.41 2.96 2.54 2.32 2.33 2.28 2.18 2.04 1.88 1.64 1.31
3.83 4.30 4.18 4.29 4.32 4.71 4.93 4.55 5.29 5.43 5.26 4.94 4.19 3.96 3.55 3.39 3.36 3.03 3.16 3.20 3.58 3.42 3.45 3.53 3.82 4.04 4.81 5.77 6.26 6.21 5.73 4.97 4.17 3.57 3.17 2.98 2.96 2.80 2.52 2.26 1.98 1.75 1.43
3.72 4.26 4.10 4.09 4.13 4.65 4.88 4.83 5.29 5.27 4.92 4.77 3.71 3.55 3.41 3.04 3.00 3.06 2.87 3.06 3.34 3.01 3.29 3.61 4.05 3.59 3.94 4.60 5.71 6.35 6.40 6.05 5.34 4.93 4.66 4.26 3.93 3.48 2.93 2.49 2.12 1.89 1.65
3.58 4.16 3.83 4.29 4.19 4.39 4.51 4.48 4.85 4.98 4.58 4.54 4.44 3.96 3.16 2.71 2.65 2.66 2.72 2.91 2.91 3.02 3.70 4.31 4.49 4.31 4.06 3.90 4.33 5.11 6.05 6.36 5.91 5.48 5.46 5.23 4.92 4.24 3.41 2.81 2.40 2.03 1.82
3.43 3.69 4.07 3.98 4.04 4.26 4.28 4.31 4.67 4.63 4.16 4.26 4.52 4.58 3.77 3.40 2.81 2.15 2.49 2.64 2.78 3.22 3.54 3.77 4.18 4.54 4.68 4.95 4.25 4.13 4.95 5.74 5.97 5.70 5.43 5.50 5.33 4.48 3.75 3.42 2.98 2.49 2.21
3.21 3.42 3.74 3.80 3.88 3.73 3.97 4.21 4.18 4.23 4.17 4.08 4.10 4.60 4.26 3.79 3.13 2.47 2.28 2.41 2.81 3.17 3.26 3.51 3.54 3.88 4.20 4.90 4.94 4.35 4.17 4.41 5.04 5.73 5.68 5.34 5.08 4.42 3.91 3.78 3.61 3.16 2.88
2.99 3.18 3.35 3.37 3.43 3.39 3.70 3.41 3.56 3.94 4.20 4.04 3.89 3.77 3.84 3.99 3.83 3.10 2.54 2.40 2.71 2.91 2.91 2.88 3.18 3.64 3.75 4.08 4.42 4.27 3.87 3.53 3.78 4.57 5.20 5.25 4.94 4.39 4.11 4.17 4.38 4.13 3.57
2.85 2.80 3.01 3.13 3.11 3.04 3.18 3.24 3.62 3.59 3.78 3.81 3.80 3.75 3.83 3.85 3.65 3.47 3.07 2.88 2.79 2.50 2.48 2.66 2.99 3.33 3.49 3.72 4.07 4.01 3.98 3.42 3.35 3.52 3.96 4.47 4.71 4.63 4.35 4.45 4.97 5.06 4.60
2.79 2.71 2.77 2.96 2.87 2.86 3.02 3.17 3.29 3.30 3.43 3.55 3.53 3.56 3.85 3.74 3.62 3.71 3.27 3.06 2.93 2.55 2.49 2.59 2.76 3.09 3.26 3.43 3.27 3.58 3.55 3.14 3.02 2.94 2.95 3.26 3.70 4.06 4.22 4.49 5.11 5.47 5.35
2.32 2.49 2.64 2.76 2.73 2.75 2.81 3.01 3.12 3.23 3.38 3.44 3.34 3.37 3.44 3.45 3.59 3.73 3.75 3.30 3.02 2.60 2.64 2.55 2.52 2.83 2.97 3.29 3.22 3.14 2.81 2.62 2.44 2.33 2.41 2.53 2.69 2.99 3.27 3.71 4.40 4.98 5.23
2.02 2.13 2.26 2.31 2.42 2.56 2.59 3.04 3.08 3.19 3.31 3.23 3.04 3.47 3.33 3.02 3.28 3.50 3.78 3.97 3.56 3.02 2.96 2.78 2.52 2.51 2.69 2.83 2.92 2.75 2.29 2.23 2.00 1.93 1.93 1.96 2.02 2.14 2.36 2.62 3.01 3.40 3.84
2.15 2.21 2.22 2.25 2.38 2.62 2.84 3.14 3.13 3.18 3.33 3.20 3.21 3.38 3.17 2.92 2.96 3.06 3.56 4.02 4.14 3.61 3.27 3.11 2.93 2.57 2.48 2.47 2.66 2.41 2.36 2.24 1.92 1.81 1.74 1.63 1.61 1.70 1.88 2.03 2.14 2.31 2.49
2.36 2.36 2.38 2.42 2.38 2.50 2.76 3.01 3.02 3.06 3.21 3.20 3.25 3.42 3.35 3.05 3.08 3.10 3.46 3.89 4.13 4.20 3.60 3.14 3.08 2.72 2.47 2.23 2.49 2.33 2.25 2.26 1.95 1.76 1.69 1.59 1.51 1.47 1.48 1.55 1.62 1.69 1.82
2.24 2.19 2.18 2.22 2.25 2.38 2.63 2.73 2.65 2.74 2.76 2.93 2.87 3.01 3.15 3.35 3.31 3.30 3.50 3.69 3.93 4.24 3.73 3.31 3.37 3.18 2.91 2.60 2.45 2.40 2.18 2.09 1.96 1.84 1.63 1.57 1.50 1.41 1.38 1.40 1.42 1.49 1.58
1.93 1.84 1.92 2.02 2.05 2.17 2.35 2.31 2.27 2.40 2.53 2.73 2.90 3.05 2.91 3.09 3.18 3.19 3.34 3.53 3.78 4.08 3.89 3.66 3.73 3.66 3.41 3.03 2.85 2.71 2.31 2.10 2.00 2.00 1.74 1.58 1.50 1.45 1.37 1.38 1.39 1.40 1.44
1.66 1.67 1.79 1.90 1.98 2.09 2.05 1.99 2.09 2.16 2.30 2.51 2.71 2.72 2.64 2.85 2.84 3.00 3.09 3.22 3.45 3.71 3.84 3.68 3.67 3.75 3.48 3.24 3.12 2.72 2.45 2.45 2.09 2.13 2.08 1.78 1.58 1.49 1.46 1.42 1.38 1.42 1.43
1.67 1.71 1.84 1.98 1.96 1.94 1.91 2.04 2.16 2.22 2.30 2.30 2.28 2.26 2.26 2.38 2.56 2.90 2.97 3.03 3.17 3.40 3.53 3.56 3.59 3.59 3.43 3.38 3.41 3.02 2.81 2.69 2.41 2.07 2.11 1.87 1.76 1.66 1.56 1.47 1.45 1.47 1.55
1.67 1.75 1.93 2.00 2.00 1.91 1.76 2.00 2.18 2.13 2.20 2.17 2.08 1.94 1.86 1.98 2.16 2.39 2.29 2.55 2.81 2.97 3.06 3.22 3.34 3.50 3.34 3.44 3.29 3.19 3.02 2.91 2.79 2.46 2.37 2.02 1.87 1.74 1.60 1.52 1.48 1.50 1.60
1.78 1.81 1.79 1.83 1.74 1.45 1.60 1.86 1.99 2.03 2.16 2.19 2.08 1.95 1.81 1.80 1.86 1.92 1.93 2.03 2.29 2.50 2.66 2.93 3.09 3.25 3.11 3.12 3.34 3.33 3.24 3.06 2.90 2.72 2.87 2.69 2.40 2.22 1.89 1.56 1.51 1.49 1.52
1.82 1.80 1.72 1.73 1.70 1.64 1.74 1.77 1.78 1.89 2.08 2.13 2.17 2.16 1.82 1.51 1.69 1.67 1.76 1.78 1.83 1.98 2.22 2.58 2.74 2.76 2.96 3.03 3.38 3.40 3.52 3.38 3.17 3.05 3.25 3.19 2.98 2.77 2.08 1.86 1.84 1.57 1.44
1.78 1.78 1.77 1.78 1.86 1.82 1.85 1.71 1.75 1.73 1.88 1.99 2.03 2.01 1.95 1.84 1.76 1.75 1.75 1.70 1.54 1.60 1.79 1.84 2.00 2.29 2.83 3.21 3.30 3.33 3.65 3.63 3.39 3.23 3.31 3.34 3.06 2.95 2.39 1.97 1.80 1.52 1.36
1.75 1.71 1.71 1.73 1.77 1.88 1.97 1.86 1.83 1.75 1.87 1.88 1.85 1.77 1.74 1.74 1.80 1.67 1.71 1.70 1.57 1.50 1.56 1.68 1.76 1.98 2.31 2.71 2.98 3.07 3.18 3.35 3.33 3.26 3.32 3.43 3.30 3.22 3.12 2.72 2.10 1.77 1.45
1.97 1.93 1.85 1.84 1.83 1.89 1.88 1.68 1.64 1.56 1.66 1.71 1.75 1.61 1.50 1.44 1.51 1.50 1.60 1.74 1.62 1.54 1.60 1.60 1.58 1.68 1.85 2.07 2.23 2.23 2.44 2.68 2.77 2.91 2.88 3.20 3.44 3.60 3.75 3.52 2.88 2.30 1.91